Date,TemperatureHighF,TemperatureAvgF,TemperatureLowF,DewpointHighF,DewpointAvgF,DewpointLowF,HumidityHigh,HumidityAvg,HumidityLow,PressureMaxIn,PressureMinIn,WindSpeedMaxMPH,WindSpeedAvgMPH,GustSpeedMaxMPH,PrecipitationSumIn
2014-1-1,76.5,55.6,41.5,25.7,13.9,4.5,21,19,15,30.15,30.06,4,1,8,0.00
2014-1-2,77.7,59.6,46.4,26.4,16.1,6.4,21,18,15,30.15,30.03,5,2,9,0.00
2014-1-3,76.5,58.2,45.5,25.7,15.4,6.4,21,19,15,30.03,29.94,4,1,9,0.00
2014-1-4,73.0,57.5,47.3,24.3,15.8,7.2,21,19,16,30.06,29.88,4,2,8,0.00
2014-1-5,73.6,58.8,46.4,24.6,16.1,6.4,21,19,16,30.24,30.06,7,3,12,0.00
2014-1-6,73.0,57.9,42.6,24.3,15.6,4.5,21,19,16,30.30,30.12,8,2,13,0.00
2014-1-7,65.5,51.8,39.7,20.8,11.5,3.0,21,20,18,30.15,30.03,2,1,5,0.00
2014-1-8,73.2,53.7,41.5,24.3,12.3,4.5,21,19,16,30.09,29.97,4,1,8,0.00
2014-1-9,73.0,52.1,41.7,24.3,11.3,4.5,21,19,16,30.06,29.94,5,1,8,0.00
2014-1-10,75.2,55.9,42.6,25.7,13.9,4.8,21,19,15,30.15,30.00,5,1,10,0.00
2014-1-11,76.1,57.2,45.1,25.7,14.9,6.4,21,19,15,30.15,30.00,4,2,9,0.00
2014-1-12,74.8,60.1,47.5,25.7,17.5,10.0,22,19,16,30.24,29.94,11,3,21,0.00
2014-1-13,77.0,63.9,52.7,25.9,19.5,13.5,21,18,15,30.36,30.24,8,4,17,0.00
2014-1-14,79.3,70.9,57.6,27.7,23.1,15.6,19,16,15,30.36,30.27,14,4,29,0.00
2014-1-15,81.7,66.4,53.1,28.4,20.7,13.5,21,18,14,30.30,30.18,6,2,13,0.00
2014-1-16,81.1,64.8,52.2,28.6,19.9,13.5,21,18,14,30.21,30.12,8,2,15,0.00
2014-1-17,83.5,66.8,52.0,29.3,21.0,13.3,21,17,14,30.18,30.09,8,2,15,0.00
2014-1-18,82.9,60.6,47.7,28.8,16.8,7.5,21,18,14,30.12,30.03,4,1,8,0.00
2014-1-19,80.2,59.7,46.4,28.4,16.1,6.4,21,18,15,30.15,30.06,5,1,9,0.00
2014-1-20,81.1,58.6,44.8,28.6,15.4,6.3,21,18,14,30.24,30.09,5,1,9,0.00
2014-1-21,77.9,61.7,48.4,26.6,17.8,8.1,21,18,15,30.21,30.06,4,1,9,0.00
2014-1-22,83.7,64.1,51.1,29.5,19.4,10.2,21,18,14,30.06,29.88,4,1,9,0.00
2014-1-23,79.2,62.2,45.3,27.5,17.7,6.4,21,18,15,30.18,29.85,7,2,11,0.00
2014-1-24,74.3,64.4,56.3,25.2,19.8,15.3,20,18,16,30.30,30.18,6,2,11,0.00
2014-1-25,80.6,65.1,53.6,28.4,20.2,13.5,20,18,14,30.24,30.12,4,1,8,0.00
2014-1-26,78.3,62.3,47.7,26.8,18.1,7.5,21,18,15,30.12,29.97,11,3,17,0.00
2014-1-27,80.8,64.0,49.6,28.6,19.6,11.3,26,18,14,30.06,29.97,7,2,14,0.00
2014-1-28,82.8,61.8,46.9,28.8,17.5,6.8,21,18,14,30.09,30.00,4,1,9,0.00
2014-1-29,83.5,63.3,0.0,29.3,19.1,9.5,21,18,14,30.09,29.91,5,1,10,0.00
2014-1-30,77.0,64.0,57.2,28.2,21.7,15.3,29,20,15,29.91,29.76,15,5,28,0.00
2014-1-31,66.7,59.3,51.4,28.0,21.2,12.7,34,23,17,29.91,29.76,11,7,25,0.00
2014-2-1,62.6,53.6,44.2,19.4,13.5,5.7,22,20,18,30.06,29.88,15,8,28,0.00
2014-2-2,65.5,50.1,35.2,20.8,10.5,0.3,22,20,18,30.09,29.91,8,2,14,0.00
2014-2-3,69.3,54.6,41.7,22.6,16.4,10.0,33,22,17,29.94,29.82,9,3,18,0.00
2014-2-4,68.4,55.8,47.1,21.9,17.5,10.2,30,22,17,30.03,29.91,8,4,17,0.00
2014-2-5,70.9,55.4,42.6,23.9,18.2,10.0,41,24,17,30.06,29.97,7,2,14,0.00
2014-2-6,67.5,56.6,48.6,26.6,19.7,10.4,37,24,17,30.00,29.91,12,5,27,0.00
2014-2-7,69.8,58.6,49.8,30.9,23.0,16.3,46,26,17,30.12,29.91,14,7,26,0.00
2014-2-8,76.8,60.4,46.9,25.7,21.6,17.4,35,23,15,30.18,30.06,10,4,21,0.00
2014-2-9,78.8,61.9,48.7,30.9,23.7,17.6,47,25,15,30.12,30.00,13,5,23,0.00
2014-2-10,80.1,65.5,55.0,28.2,22.6,16.9,26,20,15,30.06,29.94,10,5,22,0.00
2014-2-11,84.2,64.4,48.7,29.7,19.7,10.6,23,18,13,30.12,30.00,6,2,10,0.00
2014-2-12,86.4,65.6,50.2,29.7,20.0,9.5,21,18,13,30.15,30.06,4,1,9,0.00
2014-2-13,89.1,68.0,53.8,31.8,21.4,13.6,20,17,13,30.06,30.00,5,2,11,0.00
2014-2-14,91.0,68.7,50.9,32.0,21.6,12.4,21,17,12,30.06,29.97,5,2,9,0.00
2014-2-15,90.5,69.3,54.1,32.0,22.0,14.0,20,17,12,30.03,29.94,4,2,9,0.00
2014-2-16,87.8,67.3,56.1,30.7,21.0,15.3,20,17,13,30.06,29.91,5,1,10,0.00
2014-2-17,88.0,68.3,54.0,30.9,21.5,13.8,20,17,13,30.03,29.94,8,3,18,0.00
2014-2-18,85.8,65.3,48.2,29.7,19.6,7.9,21,17,13,30.00,29.91,4,1,8,0.00
2014-2-19,85.1,66.9,53.6,29.7,20.9,13.5,20,17,13,29.94,29.82,14,4,24,0.00
2014-2-20,81.5,66.4,53.1,28.6,20.7,13.5,21,18,14,30.12,29.94,9,3,15,0.00
2014-2-21,81.3,64.5,52.0,28.6,19.7,13.3,21,18,14,30.03,29.91,5,2,10,0.00
2014-2-22,82.2,64.0,48.7,28.6,19.2,8.4,21,18,14,29.94,29.85,4,1,9,0.00
2014-2-23,83.1,64.1,48.4,28.9,19.1,8.1,21,18,14,29.97,29.88,6,2,10,0.00
2014-2-24,84.0,64.2,48.9,29.7,19.1,8.4,21,18,14,30.00,29.91,5,2,11,0.00
2014-2-25,85.3,65.0,49.8,29.7,19.8,11.5,21,18,13,30.03,29.91,6,2,13,0.00
2014-2-26,75.4,62.8,52.7,25.7,22.0,13.5,32,21,15,30.00,29.94,13,5,26,0.00
2014-2-27,78.3,66.5,58.5,32.2,25.3,19.0,35,22,15,29.97,29.82,10,6,28,0.00
2014-2-28,71.4,59.4,52.2,50.2,32.8,17.8,70,40,18,29.85,29.59,11,2,26,0.24
2014-3-1,68.4,56.2,48.4,41.7,28.3,19.9,70,37,21,29.91,29.74,11,3,17,0.08
2014-3-2,73.0,57.0,45.3,36.7,29.4,20.8,65,38,16,30.12,29.91,8,2,17,0.00
2014-3-3,78.4,61.5,46.0,41.7,29.4,20.1,69,36,15,30.09,30.00,4,1,10,0.00
2014-3-4,80.2,64.8,52.9,34.5,28.0,21.6,48,27,15,30.03,29.94,14,4,25,0.00
2014-3-5,87.6,66.9,0.0,30.7,24.4,17.2,37,21,13,30.06,30.00,4,1,10,0.00
2014-3-6,87.1,72.8,61.5,30.2,25.1,18.7,25,17,13,30.03,29.88,14,6,27,0.00
2014-3-7,79.3,69.4,57.2,30.2,24.9,19.9,34,19,15,30.00,29.85,15,7,28,0.00
2014-3-8,81.7,69.4,0.0,28.6,22.6,17.4,19,17,14,30.21,30.00,9,4,20,0.00
2014-3-9,88.5,75.3,0.0,31.5,25.4,17.1,19,15,13,30.24,30.09,6,3,14,0.00
2014-3-10,89.4,75.1,0.0,32.0,25.5,13.6,20,15,13,30.12,29.97,10,4,19,0.00
2014-3-11,78.6,68.1,54.1,27.1,21.6,14.0,20,17,15,30.06,29.94,10,6,18,0.00
2014-3-12,80.6,65.9,53.2,28.6,20.6,13.6,21,18,14,30.09,30.00,11,4,21,0.00
2014-3-13,84.7,65.3,51.4,29.5,20.2,12.7,21,18,13,30.00,29.88,10,2,19,0.00
2014-3-14,88.7,68.9,49.3,31.5,21.7,10.9,21,17,13,30.06,29.91,10,3,19,0.00
2014-3-15,88.2,71.6,53.1,31.1,23.2,13.5,21,16,13,30.27,30.06,13,5,28,0.00
2014-3-16,92.8,74.2,57.2,32.7,24.3,15.3,19,16,12,30.30,30.09,5,2,10,0.00
2014-3-17,89.1,73.4,57.9,31.8,24.2,16.0,19,16,13,30.09,29.71,14,5,28,0.00
2014-3-18,82.2,69.0,57.9,28.4,22.1,16.0,19,17,14,29.97,29.76,14,7,28,0.00
2014-3-19,84.6,67.3,51.1,29.5,21.1,12.6,21,17,13,30.09,29.97,5,2,13,0.00
2014-3-20,87.1,67.2,48.4,30.2,20.5,8.1,21,17,13,30.06,29.91,7,2,16,0.00
2014-3-21,83.7,65.4,49.6,29.5,20.9,11.3,26,18,14,29.94,29.85,11,4,25,0.00
2014-3-22,80.4,66.4,53.6,28.6,21.8,13.5,27,18,15,30.03,29.88,12,6,23,0.00
2014-3-23,89.6,68.7,49.8,32.0,25.2,17.2,38,21,12,30.06,29.97,5,2,10,0.00
2014-3-24,90.3,69.4,54.5,32.0,23.9,14.4,26,19,12,30.06,29.94,8,1,14,0.00
2014-3-25,85.8,66.4,49.5,29.7,25.2,18.0,37,22,13,29.94,29.79,14,5,27,0.00
2014-3-26,71.1,61.9,55.2,24.8,21.4,15.6,29,21,17,29.88,29.76,12,9,31,0.00
2014-3-27,75.0,62.0,53.2,25.7,22.0,17.6,32,22,16,30.03,29.88,14,8,26,0.00
2014-3-28,85.1,65.6,49.1,29.7,22.8,16.2,33,20,13,30.12,30.00,6,2,13,0.00
2014-3-29,89.4,70.6,51.8,32.0,22.8,13.1,23,17,13,30.12,29.91,7,3,13,0.00
2014-3-30,81.5,67.6,58.8,28.6,22.3,16.9,25,18,14,30.00,29.85,16,8,30,0.00
2014-3-31,80.1,65.5,53.6,28.2,20.2,13.5,20,18,15,29.97,29.88,13,6,26,0.00
2014-4-1,71.2,59.9,51.4,24.6,19.0,12.7,29,21,17,29.94,29.85,15,8,28,0.00
2014-4-2,69.3,56.1,49.3,22.6,17.9,12.7,31,22,17,30.00,29.85,16,8,30,0.00
2014-4-3,81.3,60.9,41.5,28.6,19.1,7.9,30,20,14,30.06,29.97,6,2,13,0.00
2014-4-4,81.0,64.5,54.0,28.2,20.0,13.8,26,18,14,30.03,29.88,11,5,24,0.00
2014-4-5,81.9,64.1,51.6,28.6,20.3,12.9,27,19,14,30.00,29.82,9,6,20,0.00
2014-4-6,86.0,69.0,48.7,29.5,21.7,10.6,21,17,13,30.09,30.00,15,6,25,0.00
2014-4-7,96.4,76.4,56.3,39.4,25.6,15.3,20,16,11,30.15,30.06,6,2,17,0.00
2014-4-8,99.3,78.5,58.8,39.7,27.1,16.7,19,15,11,30.15,30.03,6,2,15,0.00
2014-4-9,102.2,80.5,0.0,40.3,28.3,18.7,18,15,11,30.06,29.91,8,2,20,0.00
2014-4-10,102.0,80.3,60.1,40.5,27.9,17.8,19,15,11,29.97,29.85,8,3,20,0.00
2014-4-11,100.6,81.9,69.4,40.5,28.8,22.8,17,15,11,29.94,29.76,12,4,25,0.00
2014-4-12,81.1,70.8,62.6,28.6,23.2,18.5,20,17,14,29.82,29.74,16,9,34,0.00
2014-4-13,84.7,68.2,54.1,29.7,24.7,18.5,35,20,13,29.94,29.79,12,7,28,0.00
2014-4-14,91.4,73.3,55.0,32.0,25.1,14.7,32,17,12,30.15,29.94,5,2,13,0.00
2014-4-15,97.0,77.1,57.7,39.6,26.1,15.8,19,15,11,30.03,29.76,9,3,18,0.00
2014-4-16,99.0,79.5,62.6,39.6,27.6,18.5,18,15,11,29.82,29.71,11,4,18,0.00
2014-4-17,90.1,74.2,59.7,32.0,25.3,18.0,24,16,12,29.94,29.82,7,3,13,0.00
2014-4-18,90.1,72.6,61.5,35.4,29.2,21.0,36,22,12,29.91,29.82,9,2,15,0.00
2014-4-19,95.2,75.5,57.0,33.4,29.2,23.0,38,20,11,30.00,29.91,8,3,18,0.00
2014-4-20,98.1,78.8,58.8,39.6,27.0,16.7,19,15,11,30.06,29.97,7,2,13,0.00
2014-4-21,99.9,81.4,62.8,40.1,28.6,18.7,18,15,11,30.03,29.88,10,3,24,0.00
2014-4-22,86.0,74.1,62.1,29.7,25.3,20.5,25,16,13,29.88,29.76,15,6,28,0.00
2014-4-23,90.5,72.1,57.4,32.0,23.6,15.4,21,16,12,29.94,29.76,9,4,22,0.00
2014-4-24,95.9,74.3,53.2,39.0,24.1,13.5,21,16,11,29.97,29.85,7,2,16,0.00
2014-4-25,87.6,71.1,59.5,30.7,23.1,17.2,22,16,13,29.88,29.71,14,7,25,0.00
2014-4-26,72.0,60.5,49.6,33.8,20.8,14.9,47,22,16,29.91,29.68,16,8,32,0.00
2014-4-27,82.2,66.8,53.1,28.6,21.3,14.2,26,18,14,29.97,29.82,12,6,24,0.00
2014-4-28,90.1,73.8,53.8,32.0,24.5,15.3,26,16,12,30.03,29.88,10,4,19,0.00
2014-4-29,90.1,76.1,61.9,32.0,25.5,18.5,19,15,12,30.21,30.03,15,6,26,0.00
2014-4-30,88.7,74.8,59.5,31.5,24.9,17.2,19,16,13,30.21,30.03,10,4,24,0.00
2014-5-1,97.5,79.1,61.7,39.6,27.0,18.7,19,15,11,30.18,30.00,9,4,22,0.00
2014-5-2,104.7,82.9,60.3,41.9,29.3,17.8,19,15,11,30.06,29.91,6,2,13,0.00
2014-5-3,106.0,87.1,69.1,42.6,31.5,22.5,17,14,11,29.94,29.82,8,4,20,0.00
2014-5-4,102.9,84.5,66.9,40.5,30.1,20.7,17,14,11,29.94,29.85,11,5,20,0.00
2014-5-5,94.5,76.8,60.6,32.9,26.0,18.5,25,16,11,29.94,29.79,10,5,25,0.00
2014-5-6,77.5,64.6,56.8,26.2,21.3,15.3,26,19,15,29.82,29.74,13,7,28,0.00
2014-5-7,79.9,65.8,54.9,28.0,22.6,14.5,26,20,15,29.91,29.76,14,7,28,0.00
2014-5-8,90.7,71.0,53.1,32.0,25.6,19.9,32,19,12,30.00,29.91,8,4,17,0.00
2014-5-9,92.7,74.3,57.2,32.5,27.1,21.6,34,18,12,30.00,29.88,14,6,27,0.00
2014-5-10,81.7,67.4,0.0,28.6,25.4,21.2,27,19,14,29.88,29.71,13,5,27,0.00
2014-5-11,84.4,74.8,63.9,28.8,25.0,19.6,18,16,13,29.97,29.91,13,7,28,0.00
2014-5-12,95.0,76.4,57.2,38.3,25.3,15.3,19,15,11,30.12,29.97,8,3,17,0.00
2014-5-13,96.1,80.6,63.5,39.2,27.6,19.2,18,15,11,30.24,30.03,9,4,19,0.00
2014-5-14,101.7,82.7,61.2,40.5,29.4,18.5,19,15,11,30.21,30.03,9,4,17,0.00
2014-5-15,106.3,85.9,63.3,42.6,31.1,19.0,18,14,11,30.09,29.97,7,3,13,0.00
2014-5-16,109.9,91.5,72.5,43.0,33.5,23.7,16,13,10,30.00,29.85,13,5,25,0.00
2014-5-17,105.6,89.9,79.5,42.6,32.8,27.0,15,13,11,29.88,29.74,13,8,28,0.00
2014-5-18,96.4,82.4,70.0,39.4,28.9,23.2,17,14,11,29.82,29.74,17,6,33,0.00
2014-5-19,95.0,77.5,62.4,38.3,26.6,18.5,25,16,11,29.88,29.76,12,7,28,0.00
2014-5-20,82.6,69.3,59.5,28.6,23.8,18.5,24,18,14,29.94,29.85,11,7,25,0.00
2014-5-21,87.6,70.7,56.5,30.7,24.4,16.9,26,18,13,29.94,29.85,9,6,22,0.00
2014-5-22,90.9,72.5,58.6,31.6,27.5,23.0,35,20,12,29.94,29.88,11,5,22,0.00
2014-5-23,96.3,75.3,60.6,39.2,28.7,24.3,32,19,11,29.94,29.85,10,5,22,0.00
2014-5-24,98.2,78.3,64.2,39.6,31.6,26.4,30,19,11,29.94,29.82,12,6,22,0.00
2014-5-25,106.7,83.6,61.2,42.6,34.3,24.8,37,19,11,29.94,29.79,9,2,22,0.00
2014-5-26,109.4,88.5,67.1,42.8,33.8,25.0,23,15,10,29.91,29.82,9,2,22,0.00
2014-5-27,109.9,90.3,70.7,43.0,33.0,23.2,19,13,10,29.94,29.82,9,3,17,0.00
2014-5-28,107.8,90.1,75.7,42.6,32.9,24.8,15,13,11,29.85,29.74,10,5,22,0.00
2014-5-29,106.7,87.8,68.5,42.6,31.9,21.9,17,14,11,29.85,29.76,8,3,23,0.00
2014-5-30,109.6,87.8,65.3,43.0,31.8,20.1,18,14,10,29.82,29.56,7,2,16,0.00
2014-5-31,105.6,86.7,65.7,42.6,31.5,20.1,18,14,11,29.85,29.76,10,4,22,0.00
2014-6-1,107.8,89.1,71.6,42.6,32.4,23.0,16,13,11,29.85,29.76,11,5,20,0.00
2014-6-2,106.7,86.8,67.6,42.6,31.5,21.2,17,14,11,29.82,29.76,12,5,26,0.00
2014-6-3,107.2,86.5,63.7,42.6,31.2,19.4,18,14,11,29.85,29.76,9,4,22,0.00
2014-6-4,105.8,89.0,71.1,42.6,32.5,23.0,17,14,11,29.82,29.74,12,5,24,0.00
2014-6-5,109.0,90.3,75.0,42.8,33.1,24.8,16,13,11,29.79,29.74,11,6,22,0.00
2014-6-6,104.0,88.8,76.6,41.4,32.3,25.5,15,13,11,29.79,29.74,13,7,28,0.00
2014-6-7,107.1,90.9,75.6,42.6,33.4,24.6,15,13,11,29.76,29.68,11,6,25,0.00
2014-6-8,111.2,89.3,66.6,43.0,33.1,23.0,22,14,10,29.82,29.71,6,2,13,0.00
2014-6-9,109.9,92.2,73.4,43.0,33.8,24.4,16,13,10,29.85,29.71,7,3,15,0.00
2014-6-10,106.0,87.8,72.0,42.6,32.1,23.4,19,14,11,29.79,29.71,10,4,23,0.00
2014-6-11,105.4,88.7,73.0,42.4,32.3,24.3,16,14,11,29.82,29.74,12,6,26,0.00
2014-6-12,106.7,88.4,71.8,42.6,32.1,23.2,16,14,11,29.88,29.79,12,5,24,0.00
2014-6-13,101.3,86.2,70.2,40.5,31.2,23.0,17,14,11,29.85,29.76,12,6,26,0.00
2014-6-14,107.2,87.3,70.9,42.6,31.5,23.4,17,14,11,29.82,29.74,11,6,24,0.00
2014-6-15,100.0,84.0,70.5,40.3,29.8,23.0,17,14,11,29.82,29.71,14,6,25,0.00
2014-6-16,100.0,82.4,65.8,40.3,28.9,20.1,18,15,11,29.85,29.76,11,5,24,0.00
2014-6-17,95.4,81.5,68.7,38.7,27.9,22.1,17,14,11,29.85,29.76,11,6,24,0.00
2014-6-18,102.7,82.1,61.7,40.5,29.0,18.5,19,15,11,29.91,29.76,9,4,19,0.00
2014-6-19,108.3,87.5,63.5,42.6,31.6,19.2,18,14,11,29.91,29.85,6,3,15,0.00
2014-6-20,110.8,90.6,68.4,43.0,33.0,21.9,17,13,10,29.91,29.79,10,3,22,0.00
2014-6-21,111.4,91.7,74.1,43.0,33.4,24.8,16,13,10,29.85,29.76,11,4,26,0.00
2014-6-22,106.2,89.7,72.1,42.6,32.6,23.5,16,13,11,29.85,29.76,12,6,27,0.00
2014-6-23,107.4,88.7,70.9,42.6,32.2,23.2,17,14,11,29.88,29.76,10,5,22,0.00
2014-6-24,109.0,87.6,68.0,42.8,31.8,21.6,17,14,11,29.91,29.79,10,3,23,0.00
2014-6-25,107.6,89.0,71.8,42.4,32.7,24.4,21,14,11,29.85,29.76,11,5,23,0.00
2014-6-26,100.6,85.5,71.6,40.5,31.1,24.6,19,14,11,29.85,29.74,14,6,29,0.00
2014-6-27,103.1,84.8,69.3,40.6,32.2,26.8,26,16,11,29.82,29.71,12,7,28,0.00
2014-6-28,109.6,89.5,69.4,43.0,35.5,26.1,32,16,10,29.82,29.74,10,3,23,0.00
2014-6-29,109.0,91.0,72.0,42.8,35.6,28.9,22,15,11,29.88,29.79,6,2,15,0.00
2014-6-30,112.6,92.7,73.6,43.2,36.6,28.6,23,15,10,29.88,29.76,8,2,18,0.00
2014-7-1,115.2,93.5,74.3,45.0,36.1,28.9,21,14,10,29.85,29.74,9,3,22,0.00
2014-7-2,110.8,93.1,75.2,43.0,35.9,28.0,21,14,10,29.88,29.76,9,3,17,0.00
2014-7-3,110.1,93.7,75.9,43.0,35.7,25.0,18,13,10,29.94,29.79,8,3,18,0.00
2014-7-4,108.5,93.1,80.8,48.4,39.4,29.7,32,17,11,30.06,29.91,8,4,17,0.00
2014-7-5,110.8,95.0,80.1,42.8,35.1,27.1,15,12,10,30.06,29.91,9,3,19,0.00
2014-7-6,113.5,95.8,77.7,43.7,35.2,26.4,15,12,10,30.00,29.82,10,4,21,0.00
2014-7-7,115.0,96.2,77.0,44.8,35.4,25.9,15,12,10,29.88,29.76,11,5,22,0.00
2014-7-8,113.5,96.2,79.9,43.7,35.6,27.0,15,12,10,29.94,29.79,8,3,17,0.00
2014-7-9,107.6,92.5,77.7,42.4,34.4,26.4,16,13,11,29.97,29.82,10,4,19,0.00
2014-7-10,108.7,90.9,74.8,42.6,33.1,24.4,16,13,11,29.94,29.79,11,4,25,0.00
2014-7-11,107.6,91.1,76.8,42.6,33.4,25.7,15,13,11,29.94,29.85,10,5,22,0.00
2014-7-12,111.4,91.3,71.2,43.0,33.4,23.0,17,13,10,29.97,29.85,9,2,17,0.00
2014-7-13,118.2,96.8,76.3,47.3,36.0,25.2,15,12,10,29.91,29.79,8,3,16,0.00
2014-7-14,107.8,92.0,82.0,49.3,39.1,30.2,29,17,11,30.03,29.91,8,4,15,0.00
2014-7-15,109.2,90.4,76.1,43.0,36.8,30.4,22,16,11,30.03,29.85,9,3,20,0.00
2014-7-16,104.2,87.6,72.0,41.4,35.1,27.0,32,16,11,29.94,29.82,12,6,27,0.00
2014-7-17,100.0,83.8,71.1,40.3,30.2,23.2,19,15,11,29.91,29.82,14,8,28,0.00
2014-7-18,104.9,85.6,67.6,41.9,31.6,23.5,23,15,11,29.94,29.85,11,5,22,0.00
2014-7-19,107.2,87.4,71.6,42.6,32.6,24.3,22,14,11,29.97,29.85,6,2,12,0.00
2014-7-20,106.0,86.7,68.9,42.6,35.8,27.7,34,18,11,29.97,29.85,9,3,22,0.00
2014-7-21,108.3,89.1,70.2,42.4,34.0,25.3,22,15,11,30.00,29.88,7,3,17,0.00
2014-7-22,112.1,91.4,69.4,43.0,33.2,22.8,17,13,10,30.00,29.88,9,3,19,0.00
2014-7-23,116.8,95.9,73.8,46.2,35.6,24.4,16,12,10,29.97,29.82,8,3,19,0.00
2014-7-24,118.8,99.0,78.3,47.7,37.4,26.8,15,12,10,29.88,29.74,7,2,14,0.00
2014-7-25,98.1,88.8,82.4,58.8,37.4,28.0,40,17,11,29.94,29.79,5,1,14,0.00
2014-7-26,113.0,93.0,76.5,43.3,35.8,27.1,20,14,10,29.97,29.85,8,2,16,0.00
2014-7-27,102.9,90.3,77.5,41.5,34.0,26.2,18,14,12,30.09,29.88,9,4,20,0.00
2014-7-28,109.4,93.6,80.6,42.8,34.7,27.0,16,13,10,30.03,29.94,7,2,17,0.00
2014-7-29,113.9,95.6,77.5,44.1,35.0,26.2,15,12,10,30.00,29.88,9,4,22,0.00
2014-7-30,116.1,97.4,78.3,45.7,36.2,26.8,15,12,10,29.94,29.82,10,4,22,0.00
2014-7-31,114.6,97.2,78.4,44.6,36.0,27.0,15,12,10,29.91,29.82,8,3,13,0.00
2014-8-1,107.4,93.7,79.3,42.6,35.4,27.0,18,13,11,29.97,29.82,8,3,17,0.00
2014-8-2,90.0,83.6,77.2,52.7,40.6,28.0,42,24,12,30.06,29.85,8,2,15,0.00
2014-8-3,102.7,81.2,73.8,62.8,50.0,36.9,65,38,12,30.00,29.91,7,2,13,0.00
2014-8-4,102.6,85.3,72.1,55.0,40.7,27.0,54,25,11,30.00,29.88,10,4,22,0.00
2014-8-5,107.1,87.1,67.3,42.6,31.5,21.0,17,14,11,30.00,29.91,8,3,19,0.00
2014-8-6,104.4,86.9,67.8,41.5,31.4,21.4,17,14,11,29.97,29.85,11,5,22,0.00
2014-8-7,106.2,86.0,66.0,42.6,30.9,20.1,18,14,11,29.94,29.82,7,3,15,0.00
2014-8-8,105.1,87.0,68.5,42.1,32.7,22.1,20,15,11,29.94,29.82,7,2,14,0.00
2014-8-9,106.9,87.9,68.7,42.6,33.2,22.1,23,15,11,30.00,29.85,7,2,14,0.00
2014-8-10,109.2,90.6,73.4,43.0,35.1,27.3,23,15,11,29.97,29.85,8,3,24,0.00
2014-8-11,110.5,92.8,78.8,43.0,34.1,27.0,15,13,10,29.97,29.85,8,2,17,0.00
2014-8-12,106.9,91.8,81.3,43.2,34.8,27.5,23,14,11,30.00,29.85,8,3,19,0.00
2014-8-13,104.4,90.0,79.2,50.4,38.1,27.5,36,17,12,29.97,29.85,7,3,15,0.00
2014-8-14,109.8,90.2,72.9,43.0,33.4,24.1,18,14,10,29.94,29.85,8,3,21,0.00
2014-8-15,111.0,91.3,73.0,43.0,33.2,24.3,16,13,10,30.00,29.85,8,3,20,0.00
2014-8-16,113.2,100.4,84.6,43.5,37.9,28.2,14,12,10,30.00,29.85,8,3,17,0.00
2014-8-17,113.9,95.2,78.1,44.1,35.0,26.6,15,12,10,29.94,29.82,10,3,16,0.00
2014-8-18,101.3,92.7,81.7,40.5,36.9,27.9,20,14,12,29.88,29.79,10,5,18,0.00
2014-8-19,104.0,87.1,73.6,42.4,31.6,24.4,24,14,11,29.85,29.76,10,4,22,0.00
2014-8-20,99.1,80.1,71.1,39.6,27.7,23.2,20,15,11,29.94,29.82,5,2,13,0.00
2014-8-21,100.4,90.8,70.7,39.7,33.9,24.4,21,14,11,29.94,29.88,6,1,10,0.00
2014-8-22,101.5,85.0,69.3,44.8,34.2,26.6,41,18,11,30.00,29.85,9,4,20,0.00
2014-8-23,103.5,85.5,71.2,40.8,30.5,23.2,17,14,11,29.94,29.79,11,5,22,0.00
2014-8-24,106.0,86.6,67.6,42.6,31.1,21.2,17,14,11,29.85,29.76,10,3,20,0.00
2014-8-25,105.3,87.8,75.4,42.3,31.4,24.4,15,13,11,29.91,29.79,8,3,20,0.00
2014-8-26,106.5,88.7,76.5,42.6,32.2,25.3,15,13,11,29.97,29.88,10,3,22,0.00
2014-8-27,109.8,92.7,76.3,43.0,34.1,25.2,15,13,10,30.03,29.94,10,4,20,0.00
2014-8-28,112.6,95.4,82.2,43.2,34.9,28.0,14,12,10,30.00,29.85,8,4,20,0.00
2014-8-29,113.7,94.7,75.0,43.9,34.7,24.4,16,12,10,29.88,29.76,8,2,17,0.00
2014-8-30,113.4,93.2,72.5,43.7,34.1,23.7,16,13,10,29.82,29.74,8,2,19,0.00
2014-8-31,111.9,92.4,74.8,43.0,33.6,24.4,16,13,10,29.82,29.74,8,3,23,0.00
2014-9-1,109.6,89.6,71.2,43.0,32.5,23.0,17,13,10,29.82,29.76,7,2,17,0.00
2014-9-2,109.8,89.7,72.1,43.0,32.5,23.5,16,13,10,29.88,29.76,6,2,15,0.00
2014-9-3,107.4,83.8,70.3,42.6,29.6,23.0,17,14,11,29.79,29.65,8,2,17,0.00
2014-9-4,106.5,87.0,70.5,42.6,31.5,23.2,17,14,11,29.79,29.65,10,3,17,0.00
2014-9-5,102.7,89.2,75.4,55.6,37.7,24.4,41,17,12,29.94,29.79,8,4,24,0.00
2014-9-6,105.1,90.1,76.6,57.2,43.4,34.7,42,22,12,29.97,29.82,7,2,13,0.00
2014-9-7,99.5,87.7,79.7,46.8,40.7,35.6,30,20,13,29.91,29.79,8,2,17,0.00
2014-9-8,99.1,86.0,74.5,68.0,44.1,28.4,75,27,11,29.91,29.82,5,2,13,0.35
2014-9-9,102.7,86.5,75.2,40.3,33.7,25.2,21,16,11,29.91,29.82,8,3,16,0.00
2014-9-10,102.9,85.8,70.0,40.5,34.9,28.4,29,17,11,29.94,29.82,5,2,11,0.00
2014-9-11,106.7,88.4,72.7,42.6,35.9,27.0,28,16,11,29.88,29.79,5,1,12,0.00
2014-9-12,110.3,90.4,72.7,43.0,34.0,25.0,20,14,10,29.85,29.74,5,1,16,0.00
2014-9-13,109.4,92.0,76.1,43.0,33.6,25.2,15,13,10,29.85,29.74,7,3,14,0.00
2014-9-14,110.1,92.8,77.5,43.0,34.8,26.2,18,13,10,29.85,29.74,6,2,13,0.00
2014-9-15,111.9,93.6,0.0,43.0,35.7,27.0,18,13,10,29.85,29.76,6,2,13,0.00
2014-9-16,105.3,91.2,80.2,57.4,42.6,28.4,44,21,12,29.94,29.79,7,3,14,0.00
2014-9-17,104.9,89.5,77.2,52.5,40.3,28.9,40,20,12,29.85,29.74,6,2,14,0.00
2014-9-18,99.7,86.6,75.6,40.1,32.1,25.2,20,14,11,29.82,29.74,13,5,35,0.00
2014-9-19,99.0,83.2,72.5,39.6,33.5,28.0,24,17,11,29.88,29.79,8,4,19,0.00
2014-9-20,101.3,82.6,69.1,40.8,35.8,27.0,35,20,12,29.91,29.82,10,3,21,0.00
2014-9-21,100.6,81.6,0.0,40.5,33.0,24.4,34,18,11,29.94,29.85,6,2,14,0.00
2014-9-22,101.7,83.7,67.5,40.3,30.3,21.4,20,15,11,29.97,29.88,7,2,13,0.00
2014-9-23,105.6,86.5,67.6,42.6,31.1,21.2,17,14,11,29.97,29.85,6,2,19,0.00
2014-9-24,107.8,89.3,71.8,42.6,32.4,23.2,18,13,11,29.91,29.82,6,2,11,0.00
2014-9-25,105.4,89.1,77.0,42.4,32.7,25.9,17,14,11,29.94,29.82,8,3,15,0.00
2014-9-26,101.1,84.8,73.8,59.4,35.8,24.6,47,19,11,29.88,29.76,9,3,20,0.00
2014-9-27,85.8,74.0,66.0,30.2,26.0,20.3,26,17,13,29.82,29.71,10,5,25,0.00
2014-9-28,86.9,72.8,63.0,32.9,27.9,23.5,28,20,13,29.91,29.79,9,5,21,0.00
2014-9-29,93.0,74.0,58.6,34.5,29.4,21.6,38,21,12,29.94,29.85,5,1,10,0.00
2014-9-30,96.8,78.0,60.6,39.6,26.3,18.1,22,15,11,29.91,29.74,5,2,10,0.00
2014-10-1,97.5,81.1,62.4,39.4,27.9,18.5,19,15,11,29.91,29.74,10,4,17,0.00
2014-10-2,97.5,80.7,66.6,39.6,27.8,20.5,17,15,11,30.06,29.91,12,2,21,0.00
2014-10-3,101.1,81.1,61.7,40.5,28.2,18.5,19,15,11,30.09,30.00,7,2,11,0.00
2014-10-4,106.2,86.0,69.3,42.6,31.0,22.6,17,14,11,30.03,29.91,6,2,12,0.00
2014-10-5,104.0,81.7,65.5,41.4,28.6,20.1,18,15,11,29.97,29.88,6,1,11,0.00
2014-10-6,100.8,80.4,66.0,40.5,27.7,20.1,18,15,11,29.97,29.88,6,2,13,0.00
2014-10-7,93.2,79.5,68.5,40.1,29.3,23.9,34,17,12,29.97,29.88,8,2,15,0.00
2014-10-8,95.9,76.9,63.9,42.4,34.9,28.0,44,24,12,29.94,29.82,6,2,14,0.00
2014-10-9,93.6,76.9,63.7,43.3,33.4,24.4,44,23,11,29.94,29.85,10,2,18,0.00
2014-10-10,94.8,79.1,63.1,37.6,29.1,23.4,32,17,11,30.00,29.91,6,2,12,0.00
2014-10-11,97.2,78.1,62.8,39.6,28.9,23.0,25,17,11,30.00,29.91,5,1,11,0.00
2014-10-12,100.0,81.1,63.9,40.3,28.3,19.6,18,15,11,29.94,29.82,11,3,24,0.00
2014-10-13,95.7,79.2,64.8,38.8,26.6,20.1,18,15,11,30.09,29.94,6,2,13,0.00
2014-10-14,94.5,76.4,60.4,32.9,25.3,18.0,19,15,11,30.00,29.88,6,2,13,0.00
2014-10-15,90.1,75.5,66.4,32.0,27.0,21.2,24,17,12,29.94,29.88,8,4,17,0.00
2014-10-16,89.8,72.6,58.5,32.0,28.3,23.2,35,20,12,30.00,29.88,6,2,13,0.00
2014-10-17,88.7,72.6,61.5,33.8,28.9,24.4,33,21,13,29.94,29.85,8,3,17,0.00
2014-10-18,90.7,73.5,58.8,32.0,28.5,23.4,34,20,12,29.91,29.79,6,2,12,0.00
2014-10-19,96.6,75.5,60.6,39.6,28.7,21.0,31,19,11,29.88,29.79,7,1,14,0.00
2014-10-20,91.8,75.8,63.0,36.9,27.6,20.3,23,17,12,29.91,29.82,6,2,13,0.00
2014-10-21,93.6,75.6,60.4,32.9,26.7,20.3,25,17,11,29.91,29.79,8,2,17,0.00
2014-10-22,94.3,74.5,58.6,32.9,24.4,16.5,19,16,11,30.00,29.85,5,1,10,0.00
2014-10-23,94.8,75.4,61.2,32.9,24.8,18.5,19,16,11,30.03,29.94,6,1,14,0.00
2014-10-24,94.5,75.9,61.3,32.9,25.2,18.5,19,15,11,30.03,29.94,7,2,13,0.00
2014-10-25,95.4,80.6,69.3,38.3,27.3,22.6,17,14,11,30.03,29.94,7,3,20,0.00
2014-10-26,84.9,74.9,64.2,29.7,25.8,22.8,24,16,13,29.97,29.82,13,5,26,0.00
2014-10-27,88.7,70.3,55.2,31.5,25.2,18.0,27,19,13,29.94,29.85,5,1,9,0.00
2014-10-28,89.1,70.1,56.1,31.8,22.5,15.3,20,17,13,30.03,29.94,5,1,11,0.00
2014-10-29,92.5,72.3,56.8,32.5,23.4,15.3,20,16,12,30.06,30.00,4,1,8,0.00
2014-10-30,90.5,72.5,58.5,32.0,23.6,16.3,19,16,12,30.03,29.94,6,1,11,0.00
2014-10-31,84.0,69.3,57.7,29.7,24.6,15.8,27,19,14,29.94,29.76,9,4,25,0.00
2014-11-1,73.4,63.0,55.9,33.4,22.8,15.8,36,22,16,29.94,29.76,11,5,25,0.00
2014-11-2,74.1,60.9,50.2,25.0,19.6,12.7,26,20,16,30.03,29.91,8,4,17,0.00
2014-11-3,73.6,61.8,47.3,24.6,18.8,10.4,27,19,16,30.18,30.03,13,6,23,0.00
2014-11-4,77.4,65.2,51.8,26.1,20.1,10.0,21,18,15,30.24,30.15,8,3,17,0.00
2014-11-5,88.5,70.1,53.2,31.5,22.5,13.5,21,17,13,30.18,30.09,8,2,13,0.00
2014-11-6,88.2,69.9,54.7,31.1,22.4,14.4,20,17,13,30.24,30.15,5,2,11,0.00
2014-11-7,88.7,69.3,55.9,31.5,22.1,15.3,20,17,13,30.15,30.06,5,1,10,0.00
2014-11-8,91.9,71.2,57.2,32.0,22.8,15.3,19,16,12,30.09,30.03,4,1,8,0.00
2014-11-9,90.1,71.0,56.7,32.0,22.8,15.3,20,16,12,30.03,29.82,5,2,10,0.00
2014-11-10,85.1,69.8,57.9,31.5,24.3,18.0,35,18,13,29.85,29.76,15,4,24,0.00
2014-11-11,73.0,63.2,56.3,31.6,25.4,19.8,37,25,16,29.88,29.79,11,4,24,0.00
2014-11-12,74.8,63.3,53.8,29.3,23.8,19.8,36,23,16,29.97,29.82,9,4,22,0.00
2014-11-13,77.0,64.7,55.2,31.5,26.1,22.5,36,24,15,30.03,29.94,13,5,23,0.00
2014-11-14,76.6,65.4,55.2,32.5,26.6,21.6,38,24,15,29.97,29.91,10,4,22,0.00
2014-11-15,75.0,64.8,55.2,32.2,26.0,20.1,40,24,16,30.00,29.91,17,6,28,0.00
2014-11-16,68.0,60.6,51.3,30.6,19.1,10.4,32,20,17,30.27,29.94,22,7,36,0.00
2014-11-17,75.2,59.7,50.9,25.7,17.0,10.2,21,19,15,30.24,30.15,7,2,13,0.00
2014-11-18,75.4,58.7,46.2,25.7,15.8,6.4,21,18,15,30.24,30.15,5,2,9,0.00
2014-11-19,78.4,57.9,43.7,27.0,15.3,5.4,21,19,15,30.15,30.03,4,1,9,0.00
2014-11-20,76.6,61.3,46.6,26.6,19.0,6.6,27,20,15,30.06,29.94,9,2,17,0.00
2014-11-21,72.1,61.0,51.8,41.0,27.5,16.9,61,30,16,30.03,29.88,7,3,13,0.20
2014-11-22,77.7,61.8,47.1,26.4,20.9,14.5,34,21,15,30.06,29.91,12,4,24,0.00
2014-11-23,72.7,61.5,48.0,24.3,18.6,7.7,28,19,16,30.21,29.91,12,4,25,0.00
2014-11-24,74.7,58.1,44.6,25.5,15.4,6.1,21,19,16,30.36,30.15,9,2,20,0.00
2014-11-25,74.1,58.1,44.8,25.0,15.6,6.3,21,19,16,30.41,30.30,5,2,9,0.00
2014-11-26,76.3,58.3,45.1,25.7,15.4,6.4,21,18,15,30.30,30.18,3,1,8,0.00
2014-11-27,83.5,63.0,48.6,29.3,18.4,8.2,21,18,14,30.18,30.06,4,2,8,0.00
2014-11-28,82.4,62.5,50.0,28.4,18.2,9.3,21,18,14,30.06,29.91,4,1,10,0.00
2014-11-29,77.2,59.7,48.7,25.9,16.7,8.4,21,19,15,29.91,29.85,4,1,9,0.00
2014-11-30,75.6,60.1,50.2,32.5,24.5,9.5,40,26,15,30.09,29.82,6,2,12,0.00
2014-12-1,72.0,58.7,49.5,36.7,27.1,18.3,50,32,16,30.18,30.03,3,0,6,0.00
2014-12-2,66.2,58.9,54.3,48.9,32.4,16.2,77,41,18,30.03,29.94,5,1,10,0.08
2014-12-3,64.0,58.6,55.8,53.2,47.3,38.3,80,67,40,30.06,29.97,2,0,6,0.04
2014-12-4,68.0,59.4,52.9,54.7,47.0,37.6,80,66,34,30.09,29.91,4,1,11,0.00
2014-12-5,68.5,58.3,49.5,48.9,42.8,32.2,77,59,26,30.15,30.06,2,0,7,0.00
2014-12-6,75.6,63.6,56.3,49.6,35.8,23.4,70,41,17,30.21,30.12,7,2,13,0.00
2014-12-7,77.5,64.1,53.1,36.3,26.3,19.8,43,25,15,30.24,30.12,7,2,10,0.00
2014-12-8,73.6,63.7,55.4,36.1,23.4,17.4,34,22,16,30.12,30.06,6,1,10,0.00
2014-12-9,79.2,63.0,50.9,27.5,20.8,13.5,28,20,15,30.09,30.00,10,2,17,0.00
2014-12-10,79.0,61.4,51.3,27.3,18.9,13.5,26,19,15,30.03,29.94,4,1,9,0.00
2014-12-11,71.8,60.1,51.4,26.6,20.9,15.3,31,22,16,30.00,29.91,5,1,10,0.00
2014-12-12,61.5,55.5,51.4,45.5,33.9,21.7,68,45,31,30.03,29.88,6,1,12,0.00
2014-12-13,65.3,55.2,46.2,27.5,22.3,16.3,39,28,18,30.09,29.97,6,3,16,0.00
2014-12-14,67.3,51.8,41.7,23.2,19.0,13.1,44,29,17,30.12,30.03,3,1,8,0.00
2014-12-15,64.4,52.4,44.8,29.3,19.3,14.7,38,27,18,30.09,29.97,5,1,8,0.00
2014-12-16,62.6,52.7,45.0,35.2,25.8,16.9,51,36,18,30.03,29.97,4,1,8,0.00
2014-12-17,61.9,53.6,48.7,43.3,36.2,28.4,73,54,28,30.06,29.94,5,1,10,0.00
2014-12-18,66.0,55.6,44.6,28.6,23.0,18.3,43,29,18,30.21,30.12,6,1,11,0.00
2014-12-19,66.6,51.6,41.4,30.7,23.0,16.9,50,34,17,30.24,30.12,3,1,8,0.00
2014-12-20,66.0,53.0,43.0,32.5,26.7,22.6,53,38,20,30.15,30.06,7,1,15,0.00
2014-12-21,67.5,54.0,44.2,34.9,29.2,24.4,59,41,20,30.15,30.03,3,1,6,0.00
2014-12-22,76.3,59.4,47.3,31.3,26.4,18.7,49,31,15,30.03,29.94,5,1,13,0.00
2014-12-23,78.3,66.2,51.3,26.8,20.7,12.7,21,18,15,30.21,30.00,9,3,18,0.00
2014-12-24,69.6,55.0,44.8,22.8,13.7,6.3,21,19,17,30.18,29.74,4,2,17,0.00
2014-12-25,62.8,57.6,48.9,23.2,17.2,8.4,26,20,18,29.91,29.68,19,10,30,0.00
2014-12-26,59.7,51.2,38.8,17.4,11.0,2.3,21,20,18,30.21,29.91,15,8,30,0.00
2014-12-27,60.4,48.6,36.7,18.0,8.9,1.0,22,20,18,30.39,30.21,7,3,17,0.00
2014-12-28,58.6,42.9,32.7,16.5,5.6,-0.9,23,21,18,30.27,30.09,2,0,5,0.00
2014-12-29,62.2,44.6,32.5,19.4,8.6,1.4,31,23,19,30.15,29.94,4,1,8,0.00
2014-12-30,59.4,47.5,39.9,20.3,12.7,7.3,38,25,19,30.00,29.85,12,4,21,0.00
2014-12-31,50.2,42.0,30.0,10.0,4.6,-2.6,26,21,19,30.03,29.91,19,10,33,0.00
2015-1-1,55.6,37.7,26.6,15.1,4.1,-2.7,31,24,19,30.18,30.00,4,1,8,0.00
2015-1-2,62.1,41.6,27.3,19.4,4.8,-5.6,25,21,18,30.15,30.03,4,1,8,0.00